Find Starlink 4659

NORAD ID: 54841 Int'l Des: 2022-177 Owner: SPXS Country: US Constellation: starlink operational
LEOCIRCULAR

リアルタイム位置

3D地球を読み込み中...

Starlink 4659について

説明を読み込み中...

次回通過

Passes for default location (London). Set your location on the main map for personalized predictions.

高度履歴

Loading altitude history...

軌道要素

1 54841U 22177X 26123.17795041 .00052114 00000-0 19070-2 0 9991
2 54841 43.0022 185.1849 0002118 290.2035 69.8589 15.27284182185294
Epoch: May 3, 2026 • Age: 5 hours

現在のステータス

高度 484.0 km
速度 7.63 km/s
衛星直下点 23.97°N, 146.02°W
打ち上げ日 Dec 28, 2022
運用期間 3.3 years
タイプ internet

技術仕様

分類 Payload
質量 305.00 kg
乾燥質量 290.00 kg
総質量 305.00 kg
長さ 0.20 m
直径 2.80 m
スパン 9.00 m
形状 Box + pan
製造者 SPXS
バスタイプ Starlink
フェーズステータス In Orbit
所有者/国 SPXS/US

Most Searched